This demonstration page uses our WeatherBlox Daily Observations layout. Learn more.

Left ArrowRight Arrow

Hourly Observations for November 12, 2015

Temp ( °F °C ) Dew Point ( °F °C ) Humidity (%) Winds ( mph kmh ) Pressure ( in mb ) Visibility ( mi km ) Precip ( " mm )
12:51 am 00:51 Clear 36 2.2 23 -5 59 59 SE 5 7 30.16 1022 10 16 0.00 0.00
1:51 am 01:51 Clear 33 0.6 22 -5.6 64 64 ESE 5 7 30.16 1022 10 16 0.00 0.00
2:51 am 02:51 Clear 37 2.8 22 -5.6 54 54 ESE 5 7 30.15 1021 10 16 0.00 0.00
3:51 am 03:51 Clear 38 3.3 21 -6.1 51 51 SSE 12 19 30.14 1021 10 16 0.00 0.00
4:51 am 04:51 Clear 37 2.8 20 -6.7 50 50 SSE 9 15 30.15 1021 10 16 0.00 0.00
5:51 am 05:51 Clear 37 2.8 20 -6.7 50 50 SSE 7 11 30.16 1021 10 16 0.00 0.00
6:51 am 06:51 Sunny 41 5 19 -7.2 41 41 SSE 16 26 30.18 1022 10 16 0.00 0.00
7:51 am 07:51 Sunny 41 5 20 -6.7 43 43 SSE 14 22 30.21 1023 10 16 0.00 0.00
8:51 am 08:51 Sunny 48 8.9 20 -6.7 33 33 SE 13 20 30.22 1023 10 16 0.00 0.00
9:51 am 09:51 Sunny 53 11.7 19 -7.2 26 26 SSE 12 19 30.20 1023 10 16 0.00 0.00
10:51 am 10:51 Sunny 57 13.9 20 -6.7 24 24 SE 9 15 30.18 1022 10 16 0.00 0.00
11:51 am 11:51 Sunny 62 16.7 17 -8.3 17 17 SE 12 19 30.13 1020 10 16 0.00 0.00
12:51 pm 12:51 Sunny 65 18.3 17 -8.3 16 16 ESE 12 19 30.07 1018 10 16 0.00 0.00
1:51 pm 13:51 Sunny 67 19.4 16 -8.9 14 14 SE 12 19 30.05 1018 10 16 0.00 0.00
2:51 pm 14:51 Sunny 69 20.6 13 -10.6 11 11 SSE 17 28 30.01 1016 10 16 0.00 0.00
3:51 pm 15:51 Sunny 68 20 14 -10 12 12 SE 15 24 30.00 1016 10 16 0.00 0.00
4:51 pm 16:51 Sunny 65 18.3 15 -9.4 14 14 SSE 10 17 30.01 1016 10 16 0.00 0.00
5:51 pm 17:51 Clear 60 15.6 17 -8.3 19 19 SE 8 13 30.02 1017 10 16 0.00 0.00
6:51 pm 18:51 Clear 59 15 15 -9.4 18 18 ESE 8 13 30.04 1017 10 16 0.00 0.00
7:51 pm 19:51 Clear 56 13.3 15 -9.4 20 20 E 8 13 30.05 1018 10 16 0.00 0.00
8:51 pm 20:51 Clear 56 13.3 16 -8.9 21 21 E 10 17 30.05 1018 10 16 0.00 0.00
9:51 pm 21:51 Clear 55 12.8 15 -9.4 20 20 SE 10 17 30.06 1018 10 16 0.00 0.00
10:51 pm 22:51 Clear 52 11.1 15 -9.4 23 23 SE 9 15 30.06 1018 10 16 0.00 0.00
11:51 pm 23:51 Clear 52 11.1 16 -8.9 24 24 SE 13 20 30.04 1017 10 16 0.00 0.00

Powered by AerisWeather